| time (UTC) | temp F | wind direction | speed MPH | gust MPH | rain 1hr in | rain 24hr in | rain mn in | humidity % | barometer mb |
| 20260503225025 | 29 | 290 | 0.0 | 0.0 | 0.00 | 0.00 | 0.00 | 83 | 1004.3 |
| 20260503224539 | 30 | 290 | 0.0 | 0.0 | 0.00 | 0.00 | 0.00 | 82 | 1004.3 |
| 20260503224023 | 30 | 290 | 0.0 | 0.0 | 0.00 | 0.00 | 0.00 | 81 | 1004.3 |
| 20260503223531 | 30 | 290 | 0.0 | 0.0 | 0.00 | 0.00 | 0.00 | 80 | 1004.3 |
| 20260503223027 | 30 | 290 | 0.0 | 0.0 | 0.00 | 0.00 | 0.00 | 80 | 1004.4 |
| 20260503222546 | 30 | 290 | 0.0 | 0.0 | 0.00 | 0.00 | 0.00 | 80 | 1004.4 |
| 20260503222029 | 31 | 290 | 0.0 | 0.0 | 0.00 | 0.00 | 0.00 | 80 | 1004.4 |
| 20260503221537 | 31 | 290 | 0.0 | 0.0 | 0.00 | 0.00 | 0.00 | 80 | 1004.4 |
| 20260503221023 | 31 | 290 | 0.0 | 0.0 | 0.00 | 0.00 | 0.00 | 79 | 1004.4 |
| 20260503220527 | 31 | 290 | 0.0 | 0.0 | 0.00 | 0.00 | 0.00 | 79 | 1004.4 |
| 20260503220048 | 31 | 290 | 0.0 | 0.0 | 0.00 | 0.00 | 0.00 | 78 | 1004.4 |
| 20260503215531 | 32 | 290 | 0.0 | 0.0 | 0.00 | 0.00 | 0.00 | 78 | 1004.4 |
| 20260503215059 | 32 | 290 | 0.0 | 0.0 | 0.00 | 0.00 | 0.00 | 77 | 1004.4 |
| 20260503214530 | 32 | 290 | 0.0 | 0.0 | 0.00 | 0.00 | 0.00 | 76 | 1004.4 |
| 20260503214034 | 32 | 290 | 0.0 | 0.0 | 0.00 | 0.00 | 0.00 | 76 | 1004.4 |
| 20260503213521 | 33 | 290 | 0.0 | 0.0 | 0.00 | 0.00 | 0.00 | 76 | 1004.4 |
| 20260503213030 | 33 | 290 | 0.0 | 0.0 | 0.00 | 0.00 | 0.00 | 75 | 1004.5 |
| 20260503212520 | 33 | 290 | 0.0 | 0.0 | 0.00 | 0.00 | 0.00 | 75 | 1004.5 |
| 20260503212059 | 33 | 290 | 0.0 | 0.0 | 0.00 | 0.00 | 0.00 | 74 | 1004.5 |
| 20260503211527 | 34 | 290 | 0.0 | 0.0 | 0.00 | 0.00 | 0.00 | 73 | 1004.6 |
| 20260503211022 | 34 | 290 | 0.0 | 0.0 | 0.00 | 0.00 | 0.00 | 73 | 1004.6 |
| 20260503210528 | 34 | 290 | 0.0 | 0.0 | 0.00 | 0.00 | 0.00 | 72 | 1004.6 |
| 20260503210026 | 34 | 290 | 0.0 | 0.0 | 0.00 | 0.00 | 0.00 | 71 | 1004.6 |
| 20260503205544 | 35 | 290 | 0.0 | 0.0 | 0.00 | 0.00 | 0.00 | 71 | 1004.6 |
| 20260503205033 | 35 | 290 | 0.0 | 0.0 | 0.00 | 0.00 | 0.00 | 69 | 1004.6 |
| 20260503204521 | 35 | 290 | 0.0 | 0.0 | 0.00 | 0.00 | 0.00 | 69 | 1004.6 |
| 20260503204024 | 36 | 290 | 0.0 | 0.0 | 0.00 | 0.00 | 0.00 | 69 | 1004.6 |
| 20260503203537 | 36 | 290 | 0.0 | 0.0 | 0.00 | 0.00 | 0.00 | 68 | 1004.6 |
| 20260503203039 | 36 | 290 | 0.0 | 0.0 | 0.00 | 0.00 | 0.00 | 67 | 1004.6 |
| 20260503202523 | 36 | 290 | 0.0 | 0.0 | 0.00 | 0.00 | 0.00 | 66 | 1004.7 |
| 20260503202028 | 37 | 290 | 0.0 | 0.0 | 0.00 | 0.00 | 0.00 | 66 | 1004.7 |
| 20260503201544 | 37 | 290 | 0.0 | 0.0 | 0.00 | 0.00 | 0.00 | 65 | 1004.7 |
| 20260503201048 | 37 | 290 | 0.0 | 0.0 | 0.00 | 0.00 | 0.00 | 64 | 1004.6 |
| 20260503200545 | 37 | 290 | 0.0 | 0.0 | 0.00 | 0.00 | 0.00 | 64 | 1004.6 |
| 20260503200030 | 38 | 290 | 0.0 | 0.0 | 0.00 | 0.00 | 0.00 | 63 | 1004.5 |
| 20260503195528 | 38 | 290 | 0.0 | 0.0 | 0.00 | 0.00 | 0.00 | 63 | 1004.5 |
| 20260503195034 | 38 | 0.0 | 0.0 | 0.00 | 0.00 | 0.00 | 62 | 1004.5 | |
| 20260503194549 | 0 | 0.0 | 0.0 | 0.00 | 0.00 | 0.01 | 1004.6 | ||
| 20260503194027 | 0 | 0.0 | 0.0 | 0.00 | 0.00 | 0.01 | 1004.5 | ||
| 20260503193520 | 0 | 0.0 | 0.0 | 0.00 | 0.00 | 0.01 | 1004.5 | ||
| 20260503193038 | 0 | 0.0 | 0.0 | 0.00 | 0.00 | 0.01 | 1004.5 | ||
| 20260503192540 | 0 | 0.0 | 0.0 | 0.00 | 0.00 | 0.01 | 1004.5 | ||
| 20260503192058 | 0 | 0.0 | 0.0 | 0.00 | 0.00 | 0.01 | 1004.5 | ||
| 20260503191549 | 0 | 0.0 | 0.0 | 0.00 | 0.00 | 0.01 | 1004.5 | ||
| 20260503191025 | 0 | 0.0 | 0.0 | 0.00 | 0.00 | 0.01 | 1004.5 | ||
| 20260503190534 | 0 | 0.0 | 0.0 | 0.00 | 0.00 | 0.01 | 1004.5 | ||
| 20260503190053 | 0 | 0.0 | 0.0 | 0.00 | 0.00 | 0.01 | 1004.5 | ||
| 20260503185530 | 0 | 0.0 | 0.0 | 0.00 | 0.00 | 0.01 | 1004.3 | ||
| 20260503185057 | 0 | 0.0 | 0.0 | 0.00 | 0.00 | 0.01 | 1004.3 | ||
| 20260503184528 | 0 | 0.0 | 0.0 | 0.00 | 0.00 | 0.01 | 1004.3 | ||
| 20260503184040 | 0 | 0.0 | 0.0 | 0.00 | 0.00 | 0.01 | 1004.1 | ||
| 20260503183525 | 0 | 0.0 | 0.0 | 0.00 | 0.00 | 0.01 | 1004.1 | ||
| 20260503183037 | 0 | 0.0 | 0.0 | 0.00 | 0.00 | 0.01 | 1004.1 | ||
| 20260503182538 | 0 | 0.0 | 0.0 | 0.00 | 0.00 | 0.01 | 1004.1 | ||
| 20260503182025 | 0 | 0.0 | 0.0 | 0.00 | 0.00 | 0.01 | 1004.1 | ||
| 20260503181534 | 0 | 0.0 | 0.0 | 0.00 | 0.00 | 0.01 | 1004.1 | ||
| 20260503181101 | 0 | 0.0 | 0.0 | 0.00 | 0.00 | 0.01 | 1004.0 | ||
| 20260503180527 | 0 | 0.0 | 0.0 | 0.00 | 0.00 | 0.01 | 1004.0 | ||
| 20260503180035 | 0 | 0.0 | 0.0 | 0.00 | 0.00 | 0.01 | 1004.0 | ||
| 20260503175552 | 0 | 0.0 | 0.0 | 0.00 | 0.00 | 0.01 | 1003.9 | ||
| 20260503175059 | 0 | 0.0 | 0.0 | 0.00 | 0.00 | 0.01 | 1003.9 | ||
| 20260503174523 | 0 | 0.0 | 0.0 | 0.00 | 0.00 | 0.01 | 1003.9 | ||
| 20260503174039 | 0 | 0.0 | 0.0 | 0.00 | 0.00 | 0.01 | 1003.9 | ||
| 20260503173535 | 0 | 0.0 | 0.0 | 0.00 | 0.00 | 0.01 | 1003.9 | ||
| 20260503173024 | 0 | 0.0 | 0.0 | 0.00 | 0.00 | 0.01 | 1003.9 | ||
| 20260503172530 | 0 | 0.0 | 0.0 | 0.00 | 0.00 | 0.01 | 1003.9 | ||
| 20260503172050 | 0 | 0.0 | 0.0 | 0.00 | 0.00 | 0.01 | 1003.9 | ||
| 20260503171537 | 0 | 0.0 | 0.0 | 0.00 | 0.00 | 0.01 | 1003.9 | ||
| 20260503171027 | 0 | 0.0 | 0.0 | 0.00 | 0.00 | 0.01 | 1003.8 | ||
| 20260503170522 | 0 | 0.0 | 0.0 | 0.00 | 0.00 | 0.01 | 1003.8 | ||
| 20260503150543 | 51 | 268 | 5.0 | 0.0 | 0.00 | 0.00 | 0.01 | 32 | 1004.0 |
| 20260503131031 | 54 | 295 | 6.0 | 0.0 | 0.00 | 0.00 | 0.01 | 33 | 1004.1 |
| 20260503130533 | 54 | 279 | 6.0 | 0.0 | 0.00 | 0.00 | 0.01 | 33 | 1004.1 |
| 20260503110544 | 54 | 252 | 4.0 | 0.0 | 0.00 | 0.00 | 0.01 | 32 | 1004.5 |
| 20260503081537 | 50 | 250 | 4.0 | 0.0 | 0.00 | 0.00 | 0.01 | 49 | 1004.6 |
| 20260503081021 | 49 | 285 | 5.0 | 0.0 | 0.00 | 0.00 | 0.01 | 47 | 1004.5 |
| 20260503080551 | 50 | 281 | 4.0 | 0.0 | 0.00 | 0.00 | 0.01 | 45 | 1004.5 |
| 20260503072525 | 48 | 237 | 3.0 | 0.0 | 0.00 | 0.00 | 0.01 | 55 | 1004.3 |
| 20260503072042 | 48 | 217 | 3.0 | 0.0 | 0.00 | 0.00 | 0.01 | 53 | 1004.3 |
| 20260503071545 | 47 | 298 | 3.0 | 0.0 | 0.00 | 0.00 | 0.01 | 54 | 1004.3 |
| 20260503071044 | 47 | 300 | 5.0 | 0.0 | 0.00 | 0.00 | 0.01 | 53 | 1004.2 |
| 20260503070539 | 47 | 302 | 5.0 | 0.0 | 0.00 | 0.00 | 0.01 | 54 | 1004.2 |
| 20260503055022 | 45 | 254 | 5.0 | 0.0 | 0.00 | 0.00 | 0.01 | 55 | 1003.8 |
| 20260503054522 | 45 | 323 | 6.0 | 0.0 | 0.00 | 0.00 | 0.01 | 59 | 1003.8 |
| 20260503054028 | 45 | 289 | 7.0 | 0.0 | 0.00 | 0.00 | 0.01 | 58 | 1003.8 |
| 20260503053545 | 45 | 314 | 7.0 | 0.0 | 0.00 | 0.00 | 0.01 | 59 | 1003.8 |
| 20260503053030 | 44 | 302 | 5.0 | 0.0 | 0.00 | 0.00 | 0.01 | 59 | 1003.8 |
| 20260503052607 | 44 | 326 | 5.0 | 0.0 | 0.00 | 0.00 | 0.01 | 61 | 1003.6 |
| 20260503052034 | 44 | 329 | 5.0 | 0.0 | 0.00 | 0.00 | 0.01 | 62 | 1003.6 |
| 20260503051538 | 43 | 331 | 4.0 | 0.0 | 0.00 | 0.00 | 0.01 | 62 | 1003.6 |
| 20260503051024 | 43 | 286 | 3.0 | 0.0 | 0.00 | 0.00 | 0.01 | 64 | 1003.6 |
| 20260503050539 | 42 | 292 | 3.0 | 0.0 | 0.00 | 0.00 | 0.01 | 65 | 1003.6 |
| 20260503050024 | 42 | 285 | 4.0 | 0.0 | 0.00 | 0.00 | 0.01 | 66 | 1003.6 |
| 20260503045539 | 42 | 309 | 4.0 | 0.0 | 0.00 | 0.00 | 0.01 | 68 | 1003.6 |
| 20260503045025 | 42 | 286 | 3.0 | 0.0 | 0.00 | 0.00 | 0.01 | 71 | 1003.6 |
| 20260503044538 | 41 | 281 | 3.0 | 0.0 | 0.00 | 0.00 | 0.01 | 73 | 1003.6 |
| 20260503044020 | 41 | 278 | 2.0 | 0.0 | 0.00 | 0.00 | 0.01 | 74 | 1003.5 |
| 20260503043528 | 41 | 278 | 2.0 | 0.0 | 0.00 | 0.00 | 0.01 | 76 | 1003.5 |
| 20260503043046 | 41 | 278 | 2.0 | 0.0 | 0.00 | 0.00 | 0.01 | 76 | 1003.5 |
| 20260503042531 | 41 | 278 | 1.0 | 0.0 | 0.00 | 0.00 | 0.01 | 76 | 1003.5 |
| 20260503042034 | 41 | 278 | 2.0 | 0.0 | 0.00 | 0.00 | 0.01 | 77 | 1003.5 |
| 20260503041540 | 41 | 278 | 3.0 | 0.0 | 0.00 | 0.00 | 0.01 | 77 | 1003.5 |
| 20260503041044 | 41 | 279 | 2.0 | 0.0 | 0.00 | 0.00 | 0.01 | 80 | 1003.5 |
| 20260503040532 | 41 | 279 | 1.0 | 0.0 | 0.00 | 0.00 | 0.01 | 83 | 1003.5 |
| 20260503040036 | 41 | 286 | 0.0 | 0.0 | 0.00 | 0.00 | 0.01 | 84 | 1003.4 |
| 20260503035537 | 41 | 286 | 0.0 | 0.0 | 0.00 | 0.00 | 0.01 | 84 | 1003.4 |
| 20260503035052 | 41 | 286 | 0.0 | 0.0 | 0.00 | 0.00 | 0.01 | 86 | 1003.4 |
| 20260503034531 | 41 | 286 | 0.0 | 0.0 | 0.00 | 0.00 | 0.01 | 86 | 1003.4 |
| 20260503034023 | 41 | 286 | 0.0 | 0.0 | 0.00 | 0.00 | 0.01 | 85 | 1003.4 |
| 20260503033524 | 41 | 286 | 0.0 | 0.0 | 0.00 | 0.00 | 0.01 | 86 | 1003.4 |
| 20260503033034 | 41 | 286 | 1.0 | 0.0 | 0.00 | 0.00 | 0.01 | 86 | 1003.4 |
| 20260503032536 | 41 | 286 | 1.0 | 0.0 | 0.00 | 0.00 | 0.01 | 86 | 1003.3 |
| 20260503032022 | 41 | 286 | 0.0 | 0.0 | 0.00 | 0.00 | 0.01 | 86 | 1003.3 |
| 20260503031535 | 41 | 286 | 0.0 | 0.0 | 0.00 | 0.00 | 0.01 | 86 | 1003.3 |
| 20260503031021 | 41 | 286 | 2.0 | 0.0 | 0.00 | 0.00 | 0.01 | 85 | 1003.4 |
| 20260503030525 | 41 | 286 | 3.0 | 0.0 | 0.00 | 0.00 | 0.01 | 86 | 1003.4 |
| 20260503030038 | 41 | 286 | 2.0 | 0.0 | 0.00 | 0.00 | 0.01 | 86 | 1003.4 |
| 20260503025524 | 41 | 286 | 3.0 | 0.0 | 0.00 | 0.00 | 0.01 | 87 | 1003.4 |
| 20260503025030 | 41 | 286 | 4.0 | 0.0 | 0.00 | 0.00 | 0.01 | 88 | 1003.4 |
| 20260503024546 | 41 | 271 | 2.0 | 0.0 | 0.00 | 0.00 | 0.01 | 90 | 1003.4 |
| 20260503024032 | 41 | 313 | 1.0 | 0.0 | 0.00 | 0.00 | 0.01 | 91 | 1003.4 |
| 20260503023538 | 41 | 313 | 1.0 | 0.0 | 0.00 | 0.00 | 0.01 | 91 | 1003.4 |
| 20260503023024 | 41 | 313 | 1.0 | 0.0 | 0.00 | 0.00 | 0.01 | 91 | 1003.4 |
| 20260503022541 | 41 | 313 | 1.0 | 0.0 | 0.00 | 0.00 | 0.01 | 91 | 1003.5 |
| 20260503022029 | 41 | 313 | 1.0 | 0.0 | 0.00 | 0.00 | 0.01 | 91 | 1003.5 |
| 20260503021543 | 41 | 313 | 1.0 | 0.0 | 0.00 | 0.00 | 0.01 | 91 | 1003.5 |
| 20260503021029 | 41 | 313 | 1.0 | 0.0 | 0.00 | 0.00 | 0.01 | 91 | 1003.4 |
| 20260503020537 | 41 | 313 | 2.0 | 0.0 | 0.00 | 0.00 | 0.01 | 91 | 1003.4 |
| 20260503020111 | 42 | 313 | 2.0 | 0.0 | 0.00 | 0.00 | 0.01 | 91 | 1003.4 |
| 20260503015531 | 42 | 313 | 3.0 | 0.0 | 0.00 | 0.00 | 0.01 | 91 | 1003.3 |
| 20260503015049 | 42 | 314 | 2.0 | 0.0 | 0.00 | 0.00 | 0.01 | 91 | 1003.3 |
| 20260503014535 | 42 | 314 | 2.0 | 0.0 | 0.00 | 0.00 | 0.01 | 91 | 1003.3 |
| 20260503014033 | 42 | 314 | 2.0 | 0.0 | 0.00 | 0.00 | 0.01 | 91 | 1003.0 |
| 20260503013521 | 42 | 314 | 2.0 | 0.0 | 0.00 | 0.00 | 0.01 | 91 | 1003.0 |
| 20260503013034 | 42 | 314 | 2.0 | 0.0 | 0.00 | 0.00 | 0.01 | 91 | 1003.0 |
| 20260503012521 | 42 | 314 | 1.0 | 0.0 | 0.00 | 0.00 | 0.01 | 91 | 1003.1 |
| 20260503012030 | 42 | 314 | 1.0 | 0.0 | 0.00 | 0.00 | 0.01 | 91 | 1003.1 |
| 20260503011548 | 42 | 314 | 2.0 | 0.0 | 0.00 | 0.00 | 0.01 | 91 | 1003.1 |
| 20260503011050 | 42 | 314 | 2.0 | 0.0 | 0.00 | 0.00 | 0.01 | 91 | 1003.1 |
| 20260503010544 | 42 | 316 | 2.0 | 0.0 | 0.00 | 0.00 | 0.01 | 90 | 1003.1 |
| 20260503010032 | 42 | 316 | 2.0 | 0.0 | 0.00 | 0.00 | 0.01 | 90 | 1003.2 |
| 20260503005547 | 43 | 314 | 3.0 | 0.0 | 0.00 | 0.00 | 0.01 | 90 | 1003.0 |
| 20260503005020 | 43 | 317 | 3.0 | 0.0 | 0.00 | 0.00 | 0.01 | 90 | 1003.0 |
| 20260503004530 | 43 | 322 | 3.0 | 0.0 | 0.00 | 0.00 | 0.01 | 89 | 1003.0 |
| 20260503004050 | 43 | 316 | 2.0 | 0.0 | 0.00 | 0.00 | 0.00 | 89 | 1003.1 |
| 20260503003534 | 43 | 316 | 3.0 | 0.0 | 0.00 | 0.00 | 0.00 | 88 | 1003.1 |
| 20260503003046 | 43 | 316 | 4.0 | 0.0 | 0.00 | 0.00 | 0.00 | 88 | 1003.1 |
| 20260503002530 | 44 | 292 | 4.0 | 0.0 | 0.00 | 0.00 | 0.00 | 86 | 1003.1 |
| 20260503002032 | 44 | 290 | 4.0 | 0.0 | 0.00 | 0.00 | 0.00 | 85 | 1003.1 |
| 20260503001549 | 44 | 320 | 4.0 | 0.0 | 0.00 | 0.00 | 0.00 | 84 | 1003.1 |
| 20260503001031 | 45 | 302 | 4.0 | 0.0 | 0.00 | 0.00 | 0.00 | 83 | 1002.9 |
| 20260503000544 | 45 | 323 | 5.0 | 0.0 | 0.00 | 0.00 | 0.00 | 82 | 1002.9 |
| 20260503000030 | 45 | 320 | 5.0 | 0.0 | 0.00 | 0.00 | 0.00 | 82 | 1002.9 |
| 20260502235532 | 45 | 323 | 6.0 | 0.0 | 0.00 | 0.00 | 0.00 | 82 | 1002.9 |
| 20260502235047 | 46 | 11 | 6.0 | 0.0 | 0.00 | 0.00 | 0.00 | 80 | 1002.9 |
| 20260502234602 | 46 | 348 | 5.0 | 0.0 | 0.00 | 0.00 | 0.00 | 79 | 1002.9 |
| 20260502234036 | 46 | 305 | 5.0 | 0.0 | 0.00 | 0.00 | 0.00 | 79 | 1002.8 |
| 20260502233526 | 46 | 302 | 5.0 | 0.0 | 0.00 | 0.00 | 0.00 | 78 | 1002.8 |
| 20260502233035 | 46 | 296 | 5.0 | 0.0 | 0.00 | 0.00 | 0.00 | 77 | 1002.8 |
| 20260502232520 | 47 | 288 | 5.0 | 0.0 | 0.00 | 0.00 | 0.00 | 76 | 1002.7 |
| 20260502232032 | 47 | 326 | 5.0 | 0.0 | 0.00 | 0.00 | 0.00 | 75 | 1002.7 |
| 20260502231536 | 47 | 290 | 4.0 | 0.0 | 0.00 | 0.00 | 0.00 | 75 | 1002.7 |
| 20260502231020 | 47 | 264 | 4.0 | 0.0 | 0.00 | 0.00 | 0.00 | 75 | 1002.6 |
| 20260502230527 | 47 | 261 | 4.0 | 0.0 | 0.00 | 0.00 | 0.00 | 74 | 1002.6 |
| 20260502230100 | 47 | 259 | 5.0 | 0.0 | 0.00 | 0.00 | 0.00 | 73 | 1002.6 |
| 20260502225523 | 48 | 272 | 5.0 | 0.0 | 0.00 | 0.00 | 0.00 | 71 | 1002.5 |